User: anonymous   Login
Location: Brno
(49.2000°N, 16.6330°E)
Time: 00:06:01
(UTC+02:00)
Language:

Iridium 2 - Orbit

View from above orbital plane
View from above orbital plane
View from above satellite
View from above satellite

Ground track
Ground track

The orbit data is extracted from the following two-line orbital elements,

1 25527U 98066A   16149.41116160  .00001623  00000-0  84303-4 0  9995
2 25527  85.5321 259.1032 0011737  69.7366 290.5133 15.15229038959580
Epoch (UTC): 28 May 2016 09:52:04
Eccentricity: 0.0011737
inclination: 85.5321°
perigee height: 512 km
apogee height: 528 km
right ascension of ascending node: 259.1032°
argument of perigee: 69.7366°
revolutions per day: 15.15229038
mean anomaly at epoch: 290.5133°
orbit number at epoch: 95958

The dashed part of the orbit path shows where the satellite is in the earth's shadow,  

DLR